Weather History for PAGY - September, 2012

Change the Weather History Date:

Wednesday, September 26, 2012

  Actual Average Record
Temperature  
Mean Temperature 47 °F -  
Max Temperature 51 °F 51 °F 62 °F (1969)
Min Temperature 43 °F 41 °F 20 °F (1972)
Degree Days  
Heating Degree Days 18    
Moisture  
Dew Point 42 °F    
Average Humidity 81    
Maximum Humidity 93    
Minimum Humidity 68    
Precipitation  
Precipitation 0.43 in - - ()
Sea Level Pressure  
Sea Level Pressure 29.72 in    
Wind  
Wind Speed 12 mph (SSW)    
Max Wind Speed 23 mph    
Max Gust Speed 30 mph    
Visibility 9 miles    
Events Rain    
Averages and records for this station are not official NWS values.
T = Trace of Precipitation, MM = Missing Value Source: NWS Daily Summary

Daily Weather History Graph

Daily Weather History Graph

Search for Another Location

Airport or City:

Trip Planner

Search our weather history database for the weather conditions in past years. The results will help you decide how hot, cold, wet, or windy it might be!

Date:

Astronomy

Sep. 26, 2012 Rise Set
Actual Time 6:56 AM AKDT 6:46 PM AKDT
Civil Twilight 6:15 AM AKDT 7:27 PM AKDT
Nautical Twilight 5:27 AM AKDT 8:15 PM AKDT
Astronomical Twilight 4:35 AM AKDT 9:07 PM AKDT
Moon 5:21 PM AKDT (9/26) 2:49 AM AKDT (9/26)
Length of Visible Light 13h 11m
Length of Day
11h 50m
Waxing Gibbous, 89% of the Moon is Illuminated
Sep 26
Waxing Gibbous
Sep 29
Full
Oct 7
Last Quarter
Oct 15
New
Oct 21
First Quarter

Hourly Weather History & Observations

Time (AKDT) Temp. Windchill Dew Point Humidity Pressure Visibility Wind Dir Wind Speed Gust Speed Precip Events Conditions
12:53 AM 48.9 °F - 43.0 °F 80% 29.83 in 10.0 mi SSW 18.4 mph 28.8 mph 0.00 in   Overcast
1:53 AM 50.0 °F - 43.0 °F 77% 29.83 in 10.0 mi SSW 15.0 mph 24.2 mph 0.00 in Rain Light Rain
2:53 AM 50.0 °F - 43.0 °F 77% 29.83 in 10.0 mi SSW 12.7 mph 21.9 mph 0.01 in   Mostly Cloudy
3:53 AM 50.0 °F - 43.0 °F 77% 29.83 in 10.0 mi SSW 12.7 mph 21.9 mph N/A   Mostly Cloudy
4:53 AM 51.1 °F - 41.0 °F 68% 29.83 in 10.0 mi SSW 12.7 mph 19.6 mph N/A   Partly Cloudy
5:53 AM 50.0 °F - 39.9 °F 68% 29.85 in 10.0 mi South 13.8 mph - N/A   Partly Cloudy
6:53 AM 50.0 °F - 41.0 °F 71% 29.86 in 10.0 mi South 11.5 mph 19.6 mph N/A   Scattered Clouds
7:53 AM 50.0 °F - 43.0 °F 77% 29.86 in 10.0 mi SSW 16.1 mph 23.0 mph N/A   Mostly Cloudy
8:53 AM 51.1 °F - 41.0 °F 68% 29.86 in 10.0 mi SSW 15.0 mph 21.9 mph N/A   Overcast
9:53 AM 51.1 °F - 42.1 °F 71% 29.84 in 10.0 mi SSW 20.7 mph 26.5 mph N/A   Overcast
10:53 AM 51.1 °F - 42.1 °F 71% 29.83 in 10.0 mi SSW 23.0 mph 29.9 mph 0.00 in   Overcast
11:53 AM 50.0 °F - 44.1 °F 80% 29.84 in 6.0 mi SSW 20.7 mph 27.6 mph 0.00 in Rain Light Rain
12:53 PM 48.9 °F - 42.1 °F 77% 29.84 in 8.0 mi SSW 16.1 mph - 0.02 in Rain Light Rain
1:53 PM 48.0 °F - 42.1 °F 80% 29.83 in 10.0 mi SSW 16.1 mph 28.8 mph 0.00 in Rain Light Rain
2:53 PM 48.9 °F - 41.0 °F 74% 29.80 in 10.0 mi SSW 11.5 mph - 0.00 in   Overcast
3:53 PM 48.9 °F - 39.0 °F 69% 29.77 in 10.0 mi SSW 6.9 mph - N/A   Overcast
4:53 PM 46.9 °F - 41.0 °F 80% 29.74 in 8.0 mi SW 4.6 mph - 0.01 in Rain Light Rain
5:53 PM 46.0 °F - 42.1 °F 86% 29.69 in 10.0 mi Calm Calm - 0.01 in Rain Light Rain
6:53 PM 45.0 °F - 43.0 °F 93% 29.64 in 7.0 mi Calm Calm - 0.07 in Rain Light Rain
7:53 PM 45.0 °F - 43.0 °F 93% 29.59 in 8.0 mi Calm Calm - 0.05 in Rain Light Rain
8:40 PM 44.6 °F - 42.8 °F 93% 29.54 in 10.0 mi Calm Calm - 0.03 in Rain Light Rain
8:53 PM 44.1 °F - 42.1 °F 93% 29.52 in 10.0 mi Calm Calm - 0.04 in Rain Light Rain
9:53 PM 44.1 °F 41.5 °F 42.1 °F 93% 29.47 in 7.0 mi NNE 4.6 mph - 0.05 in Rain Light Rain
10:09 PM 44.6 °F - 42.8 °F 93% 29.45 in 7.0 mi Calm Calm - 0.01 in Rain Light Rain
10:53 PM 43.0 °F 41.3 °F 41.0 °F 93% 29.42 in 6.0 mi NW 3.5 mph - 0.07 in Rain Light Rain
11:53 PM 43.0 °F - 41.0 °F 93% 29.34 in 6.0 mi Calm Calm - 0.10 in Rain Light Rain